OPS 4682 DEB, 38391

Orbit data source: Space-Track

OPS 4682 DEB, 38391 is space debris in LEO originally from a launch on Sat, 03 Apr 1965 UTC launched from the Air Force Western Test Range (AFWTR). Debris objects in space refer to the collection of defunct objects orbiting the Earth. Examples of debris include non-operational satellites, rocket bodies, and fragments generated from explosions, collisions, or faulty payload assembly.

Loading next visibility...
Identifier
38391, 1965-027CU
Orbit
LEO
Country
Flag of USUS
Related business
Manufacturer
Unknown
Mission
Spacecraft
Bus & Motor
Unknown
Mass
Unknown
Launch date (UTC)
1965-04-03 (61 years ago)
Launch vehicle
Unknown
Launch site
Air Force Western Test Range (AFWTR)
Object type
Payload
Rocket body
Debris
Shape & HBR
Unknown shape, 0.1 m
Radar Cross Section
Small (<0.1 m²)

Expand to show TLE details & history
Last TLE update: 5 days ago

TLE from 5 days ago
0 OPS 4682 DEB
1 38391U 65027CU  26114.41125813  .00000197  00000-0  64277-3 0  9999
2 38391  90.2238   6.7941 0039539 192.0727 167.9451 12.98390333592790
Epoch: 2026-04-24T09:52Z
TLE epoch observation values (Epoch: 2026-04-24T09:52:12.702Z)
Latitude
0.00005°
Longitude
6.29681°
Altitude
1,300.859 km
Speed
7.192 km/s
True Right ascension
00h 27m 10s
True Declination
0° 00' 00"
Sunlit
Object was in daylight at epoch
Visualization orbit readout
Latitude
Unknown
Longitude
Unknown
Altitude
Unknown
Speed
Unknown
Apparent Right ascension
Unknown
Apparent Declination
Unknown
Sunlit
N/A
Visualization observer readout
Local Sidereal Time
00:34:38
Azimuth
Unknown
Elevation
Unknown
Doppler factor
Unknown
Orbital elements
Apogee altitude
1,295.752 km
Perigee altitude
1,235.307 km
Semi-major axis
7,643.666 km
Eccentricity
0.00395
Inclination
90.2238°
RAAN
6.7941°
Arg. of periapsis
192.0727°
True anomaly
168.03927°
Mean anomaly
167.9451°
Eccentric anomaly
167.99223°
Mean motion
3.24781 °/min
Orbital period
110.84 mins
BSTAR
0.00064277
Loading maneuver chart data...
Computing Atmospheric mass density...
Loading historical data...
Loading historical data...
Loading historical data...
Loading historical data...
Loading historical data...
Loading historical data...
Loading historical data...

Documentation

Showing up to 5 results
|